Location: Breezy Point Observatory
(38.9725°N, 81.7133°W)
Time: 05:09:58
(UTC-04:00)

HST - Visible Passes

Search period start: 02 September 2014 00:00
Search period end: 12 September 2014 00:00
Orbit: 547 x 552 km, 28.5° (Epoch: 01 September)

Date Brightness Start Highest point End Pass type
(mag) Time Alt. Az. Time Alt. Az. Time Alt. Az.
05 Sep 3.2 21:27:35 10° SSW 21:28:03 11° S 21:28:03 11° S visible
06 Sep 2.9 21:20:02 10° SSW 21:21:42 14° S 21:21:42 14° S visible
07 Sep 2.6 21:12:39 10° SSW 21:15:16 17° S 21:15:16 17° S visible
08 Sep 2.5 21:05:23 10° SW 21:08:15 18° S 21:08:46 18° SSE visible
09 Sep 2.5 20:58:12 10° SW 21:01:10 19° S 21:02:11 17° SSE visible
10 Sep 2.5 20:51:05 10° SW 20:54:06 19° S 20:55:35 16° SSE visible
11 Sep 2.6 20:44:02 10° SW 20:47:01 19° S 20:48:57 14° SSE visible
